����,���ϕ���(m/s),���ϕ���,�ő�u�ԕ���(m/s),�ő啗��������,�C��(��),���x(%),10���Ԉړ��ώZ�J��(mm),1���Ԉړ��ώZ�J��(mm),���J��(mm),�݌v�J��(mm),����(���ώZ)(MJ/m2),����(���ώZ)(min),���n�C��(hPa),�C�ʋC��(hPa)
2022-01-17T00:00:00+09:00,1.4,�k��,3.1,�k��,2.6,89.5,0,0,0,0,9.91,348,1006.1,1020.6
2022-01-17T00:01:00+09:00,1.4,�k��,3.1,�k��,2.6,89.6,0,0,0,0,0,0,1006,1020.5
2022-01-17T00:02:00+09:00,1.4,�k��,3.1,�k��,2.8,90.1,0,0,0,0,0,0,1006,1020.5
2022-01-17T00:03:00+09:00,1.3,�k��,2.8,���k��,2.8,90.3,0,0,0,0,0,0,1006.1,1020.6
2022-01-17T00:04:00+09:00,1.2,�k��,2.8,���k��,2.6,89.6,0,0,0,0,0,0,1006.1,1020.6
2022-01-17T00:05:00+09:00,1.2,�k��,2.8,���k��,2.6,89.3,0,0,0,0,0,0,1006.1,1020.6
2022-01-17T00:06:00+09:00,1.2,�k��,2.8,���k��,2.6,89.2,0,0,0,0,0,0,1006.2,1020.7
2022-01-17T00:07:00+09:00,1.2,�k��,2.8,���k��,2.6,89.4,0,0,0,0,0,0,1006.2,1020.7
2022-01-17T00:08:00+09:00,1.2,�k��,2.8,���k��,2.6,89.4,0,0,0,0,0,0,1006.1,1020.6
2022-01-17T00:09:00+09:00,1.1,�k��,2.8,���k��,2.5,89.2,0,0,0,0,0,0,1006.1,1020.6
2022-01-17T00:10:00+09:00,1,�k�k��,2.8,���k��,2.5,89.2,0,0,0,0,0,0,1006.1,1020.6
2022-01-17T00:11:00+09:00,0.9,�k�k��,2.8,���k��,2.5,89.3,0,0,0,0,0,0,1006.1,1020.6
2022-01-17T00:12:00+09:00,0.8,�k,2.7,�k��,2.5,89.5,0,0,0,0,0,0,1006.1,1020.6
2022-01-17T00:13:00+09:00,0.7,�k,2.7,�k��,2.4,89.4,0,0,0,0,0,0,1006.1,1020.6
2022-01-17T00:14:00+09:00,0.8,�k,2.7,�k��,2.5,89.6,0,0,0,0,0,0,1006.1,1020.6
2022-01-17T00:15:00+09:00,0.8,�k,2,�k�k��,2.5,89.6,0,0,0,0,0,0,1006.1,1020.6
2022-01-17T00:16:00+09:00,0.8,�k�k��,2,�k�k��,2.5,89.7,0,0,0,0,0,0,1006.1,1020.6
2022-01-17T00:17:00+09:00,0.8,�k�k��,2,�k�k��,2.4,89.7,0,0,0,0,0,0,1006.1,1020.6
2022-01-17T00:18:00+09:00,0.8,�k�k��,2,�k�k��,2.4,89.6,0,0,0,0,0,0,1006.1,1020.6
2022-01-17T00:19:00+09:00,1,�k�k��,2,�k�k��,2.4,89.9,0,0,0,0,0,0,1006.1,1020.6
2022-01-17T00:20:00+09:00,1,�k,2,�k�k��,2.4,89.9,0,0,0,0,0,0,1006,1020.5
2022-01-17T00:21:00+09:00,1.1,�k,3,�k��,2.6,90.4,0,0,0,0,0,0,1006,1020.5
2022-01-17T00:22:00+09:00,1.2,�k,3,�k��,2.6,90.5,0,0,0,0,0,0,1006.1,1020.6
2022-01-17T00:23:00+09:00,1.3,�k,3,�k��,2.5,90.4,0,0,0,0,0,0,1006.1,1020.6
2022-01-17T00:24:00+09:00,1.3,�k,3,�k��,2.5,90.2,0,0,0,0,0,0,1006.1,1020.6
2022-01-17T00:25:00+09:00,1.4,�k�k��,3,�k��,2.5,89.8,0,0,0,0,0,0,1006.1,1020.6
2022-01-17T00:26:00+09:00,1.4,�k�k��,3,�k��,2.4,90,0,0,0,0,0,0,1006.1,1020.6
2022-01-17T00:27:00+09:00,1.5,�k�k��,3,�k��,2.4,89.9,0,0,0,0,0,0,1006.1,1020.6
2022-01-17T00:28:00+09:00,1.7,�k�k��,3.4,�k�k��,2.4,90,0,0,0,0,0,0,1006.1,1020.6
2022-01-17T00:29:00+09:00,1.8,�k�k��,3.4,�k�k��,2.4,90,0,0,0,0,0,0,1006,1020.5
2022-01-17T00:30:00+09:00,1.9,�k�k��,3.4,�k�k��,2.4,89.7,0,0,0,0,0,0,1006,1020.5
2022-01-17T00:31:00+09:00,1.8,�k�k��,3.4,�k�k��,2.3,89.8,0,0,0,0,0,0,1006,1020.5
2022-01-17T00:32:00+09:00,1.8,�k�k��,3.4,�k�k��,2.3,89.8,0,0,0,0,0,0,1006,1020.5
2022-01-17T00:33:00+09:00,1.8,�k�k��,3.4,�k�k��,2.4,90.2,0,0,0,0,0,0,1006,1020.5
2022-01-17T00:34:00+09:00,1.8,�k�k��,3.4,�k�k��,2.3,90.2,0,0,0,0,0,0,1006,1020.5
2022-01-17T00:35:00+09:00,1.7,�k�k��,3.4,�k�k��,2.3,89.9,0,0,0,0,0,0,1006,1020.5
2022-01-17T00:36:00+09:00,1.7,�k�k��,3.4,�k�k��,2.3,89.6,0,0,0,0,0,0,1006,1020.5
2022-01-17T00:37:00+09:00,1.7,�k�k��,3.4,�k�k��,2.2,89.7,0,0,0,0,0,0,1006,1020.6
2022-01-17T00:38:00+09:00,1.6,�k�k��,2.9,�k�k��,2.3,89.8,0,0,0,0,0,0,1006.1,1020.6
2022-01-17T00:39:00+09:00,1.5,�k,2.7,�k�k��,2.4,90.4,0,0,0,0,0,0,1006,1020.5
2022-01-17T00:40:00+09:00,1.5,�k,2.7,�k�k��,2.2,90.3,0,0,0,0,0,0,1006,1020.6
2022-01-17T00:41:00+09:00,1.4,�k,2.7,�k�k��,2.2,89.9,0,0,0,0,0,0,1006,1020.6
2022-01-17T00:42:00+09:00,1.4,�k,2.7,�k�k��,2.1,89.6,0,0,0,0,0,0,1006,1020.6
2022-01-17T00:43:00+09:00,1.2,�k,2.7,�k�k��,2,89.4,0,0,0,0,0,0,1006,1020.6
2022-01-17T00:44:00+09:00,1.2,�k�k��,2.7,�k�k��,1.9,89.4,0,0,0,0,0,0,1005.9,1020.5
2022-01-17T00:45:00+09:00,1.3,�k�k��,2.7,�k�k��,1.8,89.4,0,0,0,0,0,0,1005.9,1020.5
2022-01-17T00:46:00+09:00,1.3,�k�k��,2.7,�k�k��,1.8,89.7,0,0,0,0,0,0,1005.9,1020.5
2022-01-17T00:47:00+09:00,1.2,�k�k��,2.7,�k�k��,1.9,90.1,0,0,0,0,0,0,1006,1020.6
2022-01-17T00:48:00+09:00,1.1,�k�k��,1.9,�k�k��,1.8,90.4,0,0,0,0,0,0,1006,1020.6
2022-01-17T00:49:00+09:00,1,�k�k��,1.9,�k�k��,1.7,90.3,0,0,0,0,0,0,1005.9,1020.5
2022-01-17T00:50:00+09:00,0.8,�k�k��,1.9,�k�k��,1.7,90.2,0,0,0,0,0,0,1005.9,1020.5
2022-01-17T00:51:00+09:00,0.8,�k�k��,1.9,�k�k��,1.8,90.6,0,0,0,0,0,0,1005.9,1020.5
2022-01-17T00:52:00+09:00,0.8,�k�k��,1.9,�k�k��,1.8,91.2,0,0,0,0,0,0,1005.9,1020.5
2022-01-17T00:53:00+09:00,0.8,�k�k��,1.9,�k�k��,1.7,91,0,0,0,0,0,0,1005.9,1020.5
2022-01-17T00:54:00+09:00,0.8,�k�k��,1.9,�k�k��,1.7,90.8,0,0,0,0,0,0,1005.9,1020.5
2022-01-17T00:55:00+09:00,0.8,�k�k��,1.9,�k�k��,1.7,91,0,0,0,0,0,0,1005.9,1020.5
2022-01-17T00:56:00+09:00,0.7,�k�k��,1.7,�k�k��,1.6,91.1,0,0,0,0,0,0,1005.9,1020.5
2022-01-17T00:57:00+09:00,0.7,�k�k��,1.6,�k�k��,1.6,91.2,0,0,0,0,0,0,1005.9,1020.5
2022-01-17T00:58:00+09:00,0.8,�k�k��,1.6,�k�k��,1.6,91.3,0,0,0,0,0,0,1005.9,1020.5
2022-01-17T00:59:00+09:00,0.8,�k�k��,1.6,�k�k��,1.7,91.6,0,0,0,0,0,0,1005.9,1020.5
2022-01-17T01:00:00+09:00,0.8,�k�k��,1.6,�k�k��,1.6,91.7,0,0,0,0,0,0,1005.9,1020.5
2022-01-17T01:01:00+09:00,0.8,�k,1.6,�k�k��,1.5,91.6,0,0,0,0,0,0,1005.9,1020.5
2022-01-17T01:02:00+09:00,0.7,�k,1.6,�k�k��,1.5,91.5,0,0,0,0,0,0,1005.9,1020.5
2022-01-17T01:03:00+09:00,0.7,�k,1.6,�k�k��,1.5,91.7,0,0,0,0,0,0,1005.8,1020.4
2022-01-17T01:04:00+09:00,0.6,�k,1.6,�k�k��,1.5,91.9,0,0,0,0,0,0,1005.8,1020.4
2022-01-17T01:05:00+09:00,0.6,�k,1.3,�k�k��,1.5,91.9,0,0,0,0,0,0,1005.8,1020.4
2022-01-17T01:06:00+09:00,0.6,�k�k��,1.3,�k�k��,1.6,92.2,0,0,0,0,0,0,1005.8,1020.4
2022-01-17T01:07:00+09:00,0.5,�k�k��,1.2,�k��,1.5,92.4,0,0,0,0,0,0,1005.7,1020.3
2022-01-17T01:08:00+09:00,0.5,�k�k��,1.2,�k��,1.5,92.1,0,0,0,0,0,0,1005.7,1020.3
2022-01-17T01:09:00+09:00,0.4,�k�k��,1.2,�k��,1.5,92.2,0,0,0,0,0,0,1005.6,1020.2
2022-01-17T01:10:00+09:00,0.4,�k,1.2,�k��,1.5,92.2,0,0,0,0,0,0,1005.6,1020.2
2022-01-17T01:11:00+09:00,0.4,�k,1.2,�k��,1.6,92.5,0,0,0,0,0,0,1005.6,1020.2
2022-01-17T01:12:00+09:00,0.4,�k,1.2,�k��,1.6,92.8,0,0,0,0,0,0,1005.6,1020.2
2022-01-17T01:13:00+09:00,0.4,�k,1.2,�k��,1.5,92.5,0,0,0,0,0,0,1005.6,1020.2
2022-01-17T01:14:00+09:00,0.4,�k,1.2,�k��,1.4,92.4,0,0,0,0,0,0,1005.6,1020.2
2022-01-17T01:15:00+09:00,0.3,�k,1.2,�k��,1.5,92.4,0,0,0,0,0,0,1005.7,1020.3
2022-01-17T01:16:00+09:00,0.3,�k�k��,0.8,�k,1.6,92.7,0,0,0,0,0,0,1005.7,1020.3
2022-01-17T01:17:00+09:00,0.3,�k�k��,0.8,�k,1.7,93,0,0,0,0,0,0,1005.7,1020.3
2022-01-17T01:18:00+09:00,0.3,�k�k��,0.8,�k,1.6,92.9,0,0,0,0,0,0,1005.7,1020.3
2022-01-17T01:19:00+09:00,0.4,�k�k��,0.8,�k,1.5,92.5,0,0,0,0,0,0,1005.7,1020.3
2022-01-17T01:20:00+09:00,0.4,�k�k��,0.8,�k,1.6,92.8,0,0,0,0,0,0,1005.8,1020.4
2022-01-17T01:21:00+09:00,0.5,�k,0.8,�k,1.5,92.7,0,0,0,0,0,0,1005.9,1020.5
2022-01-17T01:22:00+09:00,0.5,�k,1.2,���k��,1.4,92.5,0,0,0,0,0,0,1005.9,1020.5
2022-01-17T01:23:00+09:00,0.6,�k,1.2,���k��,1.3,92.2,0,0,0,0,0,0,1005.9,1020.5
2022-01-17T01:24:00+09:00,0.6,�k�k��,1.2,���k��,1.3,92.2,0,0,0,0,0,0,1005.9,1020.5
2022-01-17T01:25:00+09:00,0.7,�k�k��,1.2,���k��,1.3,92.2,0,0,0,0,0,0,1005.9,1020.5
2022-01-17T01:26:00+09:00,0.7,�k��,1.2,���k��,1.3,92.3,0,0,0,0,0,0,1005.9,1020.5
2022-01-17T01:27:00+09:00,0.7,�k��,1.2,���k��,1.2,92.4,0,0,0,0,0,0,1005.9,1020.5
2022-01-17T01:28:00+09:00,0.6,�k��,1.2,���k��,1.2,92.2,0,0,0,0,0,0,1005.9,1020.5
2022-01-17T01:29:00+09:00,0.6,�k��,1.2,���k��,1.2,92.4,0,0,0,0,0,0,1005.9,1020.5
2022-01-17T01:30:00+09:00,0.6,�k��,1.2,���k��,1.4,92.9,0,0,0,0,0,0,1005.9,1020.5
2022-01-17T01:31:00+09:00,0.6,�k��,1.2,���k��,1.4,93.1,0,0,0,0,0,0,1005.9,1020.5
2022-01-17T01:32:00+09:00,0.5,�k��,1.1,���k��,1.3,93,0,0,0,0,0,0,1005.9,1020.5
2022-01-17T01:33:00+09:00,0.5,�k��,1,��,1.3,92.6,0,0,0,0,0,0,1005.9,1020.5
2022-01-17T01:34:00+09:00,0.5,�k��,1.2,��,1.3,92.8,0,0,0,0,0,0,1005.9,1020.5
2022-01-17T01:35:00+09:00,0.5,�k�k��,1.2,��,1.4,93,0,0,0,0,0,0,1005.9,1020.5
2022-01-17T01:36:00+09:00,0.4,�k,1.2,��,1.5,93.4,0,0,0,0,0,0,1005.9,1020.5
2022-01-17T01:37:00+09:00,0.5,�k,1.2,��,1.4,93.2,0,0,0,0,0,0,1005.9,1020.5
2022-01-17T01:38:00+09:00,0.4,�k,1.2,��,1.4,93.2,0,0,0,0,0,0,1005.9,1020.5
2022-01-17T01:39:00+09:00,0.5,�k,1.2,��,1.3,93.2,0,0,0,0,0,0,1005.9,1020.5
2022-01-17T01:40:00+09:00,0.5,�k,1.3,�k��,1.3,92.7,0,0,0,0,0,0,1005.9,1020.5
2022-01-17T01:41:00+09:00,0.5,�k,1.3,�k��,1.3,93,0,0,0,0,0,0,1005.9,1020.5
2022-01-17T01:42:00+09:00,0.5,�k,1.3,�k��,1.2,92.9,0,0,0,0,0,0,1005.9,1020.5
2022-01-17T01:43:00+09:00,0.5,�k,1.3,�k��,1.1,92.6,0,0,0,0,0,0,1005.8,1020.4
2022-01-17T01:44:00+09:00,0.5,�k�k��,1.3,�k��,1.1,92.5,0,0,0,0,0,0,1005.8,1020.4
2022-01-17T01:45:00+09:00,0.6,�k�k��,1.3,�k��,1.1,92.5,0,0,0,0,0,0,1005.9,1020.5
2022-01-17T01:46:00+09:00,0.6,�k�k��,1.6,�k��,1.1,92.6,0,0,0,0,0,0,1005.9,1020.5
2022-01-17T01:47:00+09:00,0.8,�k�k��,2.3,�k�k��,1,92.7,0,0,0,0,0,0,1005.8,1020.4
2022-01-17T01:48:00+09:00,0.9,�k�k��,2.4,�k�k��,1,92.3,0,0,0,0,0,0,1005.9,1020.5
2022-01-17T01:49:00+09:00,1,�k,2.4,�k�k��,1,92.6,0,0,0,0,0,0,1005.9,1020.5
2022-01-17T01:50:00+09:00,1,�k,2.4,�k�k��,1,92.7,0,0,0,0,0,0,1005.9,1020.5
2022-01-17T01:51:00+09:00,0.9,�k,2.4,�k�k��,0.9,92.7,0,0,0,0,0,0,1005.9,1020.5
2022-01-17T01:52:00+09:00,1,�k,2.4,�k�k��,0.9,92.5,0,0,0,0,0,0,1005.9,1020.5
2022-01-17T01:53:00+09:00,1.2,�k,2.4,�k�k��,0.8,92.6,0,0,0,0,0,0,1005.9,1020.5
2022-01-17T01:54:00+09:00,1.3,�k,2.4,�k�k��,0.9,92.7,0,0,0,0,0,0,1005.9,1020.5
2022-01-17T01:55:00+09:00,1.3,�k,2.4,�k�k��,0.8,92.9,0,0,0,0,0,0,1006,1020.6
2022-01-17T01:56:00+09:00,1.3,�k,2.4,�k�k��,0.7,92.6,0,0,0,0,0,0,1006,1020.6
2022-01-17T01:57:00+09:00,1.2,�k,2.4,�k�k��,0.7,92.7,0,0,0,0,0,0,1006,1020.6
2022-01-17T01:58:00+09:00,1.1,�k,2.4,�k�k��,0.6,92.9,0,0,0,0,0,0,1006,1020.6
2022-01-17T01:59:00+09:00,1.1,�k,2.4,�k�k��,0.7,92.7,0,0,0,0,0,0,1006,1020.6
2022-01-17T02:00:00+09:00,1.2,�k�k��,2.4,�k�k��,0.7,93,0,0,0,0,0,0,1005.9,1020.5
2022-01-17T02:01:00+09:00,1.3,�k�k��,2.4,�k�k��,0.9,93.6,0,0,0,0,0,0,1005.9,1020.5
2022-01-17T02:02:00+09:00,1.4,�k�k��,2.4,�k�k��,0.8,93.6,0,0,0,0,0,0,1005.9,1020.5
2022-01-17T02:03:00+09:00,1.4,�k�k��,2.4,�k�k��,0.8,93.5,0,0,0,0,0,0,1006,1020.6
2022-01-17T02:04:00+09:00,1.4,�k�k��,2.4,�k�k��,0.7,93.4,0,0,0,0,0,0,1006,1020.6
2022-01-17T02:05:00+09:00,1.4,�k�k��,2.4,�k�k��,0.7,93.4,0,0,0,0,0,0,1005.9,1020.5
2022-01-17T02:06:00+09:00,1.4,�k�k��,2.4,�k�k��,0.9,93.7,0,0,0,0,0,0,1005.9,1020.5
2022-01-17T02:07:00+09:00,1.5,�k�k��,2.4,�k�k��,0.8,93.7,0,0,0,0,0,0,1005.9,1020.5
2022-01-17T02:08:00+09:00,1.6,�k�k��,2.4,�k�k��,0.8,93.7,0,0,0,0,0,0,1005.9,1020.5
2022-01-17T02:09:00+09:00,1.7,�k�k��,2.4,�k�k��,0.8,93.7,0,0,0,0,0,0,1005.9,1020.5
2022-01-17T02:10:00+09:00,1.7,�k�k��,2.4,�k�k��,0.8,93.8,0,0,0,0,0,0,1005.9,1020.5
2022-01-17T02:11:00+09:00,1.7,�k�k��,2.4,�k�k��,0.9,94,0,0,0,0,0,0,1005.9,1020.5
2022-01-17T02:12:00+09:00,1.6,�k�k��,2.3,�k��,0.9,94.1,0,0,0,0,0,0,1005.9,1020.5
2022-01-17T02:13:00+09:00,1.5,�k�k��,2.3,�k��,0.9,93.9,0,0,0,0,0,0,1006,1020.6
2022-01-17T02:14:00+09:00,1.4,�k�k��,2.3,�k��,0.7,93.7,0,0,0,0,0,0,1006,1020.6
2022-01-17T02:15:00+09:00,1.3,�k�k��,2.3,�k��,0.7,93.5,0,0,0,0,0,0,1006,1020.6
2022-01-17T02:16:00+09:00,1.2,�k,2.3,�k��,0.7,93.5,0,0,0,0,0,0,1006,1020.6
2022-01-17T02:17:00+09:00,1.2,�k,2.3,�k��,0.7,93.7,0,0,0,0,0,0,1006,1020.6
2022-01-17T02:18:00+09:00,1.2,�k,2.3,�k��,0.7,93.6,0,0,0,0,0,0,1006,1020.6
2022-01-17T02:19:00+09:00,1.2,�k�k��,2.2,�k�k��,0.8,94,0,0,0,0,0,0,1006,1020.6
2022-01-17T02:20:00+09:00,1.2,�k�k��,2.4,�k,0.7,94,0,0,0,0,0,0,1006,1020.6
2022-01-17T02:21:00+09:00,1.3,�k�k��,2.8,�k�k��,0.8,93.8,0,0,0,0,0,0,1005.9,1020.5
2022-01-17T02:22:00+09:00,1.4,�k�k��,3.4,�k�k��,0.9,94.1,0,0,0,0,0,0,1006,1020.6
2022-01-17T02:23:00+09:00,1.5,�k�k��,3.4,�k�k��,1,94.3,0,0,0,0,0,0,1006,1020.6
2022-01-17T02:24:00+09:00,1.5,�k�k��,3.4,�k�k��,0.8,94.1,0,0,0,0,0,0,1006,1020.6
2022-01-17T02:25:00+09:00,1.5,�k�k��,3.4,�k�k��,0.8,93.6,0,0,0,0,0,0,1006.1,1020.7
2022-01-17T02:26:00+09:00,1.6,�k�k��,3.4,�k�k��,0.8,93.7,0,0,0,0,0,0,1006.1,1020.7
2022-01-17T02:27:00+09:00,1.5,�k�k��,3.4,�k�k��,0.8,93.6,0,0,0,0,0,0,1006.1,1020.7
2022-01-17T02:28:00+09:00,1.4,�k�k��,3.4,�k�k��,0.7,93.6,0,0,0,0,0,0,1006.1,1020.7
2022-01-17T02:29:00+09:00,1.3,�k,3.4,�k�k��,0.7,93.5,0,0,0,0,0,0,1006.1,1020.7
2022-01-17T02:30:00+09:00,1.3,�k,3.4,�k�k��,0.6,93.4,0,0,0,0,0,0,1006.1,1020.7
2022-01-17T02:31:00+09:00,1.2,�k,3.4,�k�k��,0.6,93.4,0,0,0,0,0,0,1006.1,1020.7
2022-01-17T02:32:00+09:00,1,�k,2.8,�k�k��,0.6,93.4,0,0,0,0,0,0,1006.1,1020.7
2022-01-17T02:33:00+09:00,0.9,�k,2,�k��,0.6,93.4,0,0,0,0,0,0,1006,1020.6
2022-01-17T02:34:00+09:00,1,�k,2,�k��,0.5,93.4,0,0,0,0,0,0,1006.1,1020.7
2022-01-17T02:35:00+09:00,1,�k,2,�k��,0.4,93.2,0,0,0,0,0,0,1006,1020.6
2022-01-17T02:36:00+09:00,0.9,�k�k��,2,�k��,0.5,93.3,0,0,0,0,0,0,1006.1,1020.7
2022-01-17T02:37:00+09:00,0.9,�k�k��,1.4,�k��,0.4,93.4,0,0,0,0,0,0,1006.1,1020.7
2022-01-17T02:38:00+09:00,0.9,�k�k��,1.4,�k��,0.4,93.3,0,0,0,0,0,0,1006.1,1020.7
2022-01-17T02:39:00+09:00,0.9,�k�k��,1.4,�k��,0.4,93.3,0,0,0,0,0,0,1006.1,1020.7
2022-01-17T02:40:00+09:00,0.8,�k�k��,1.4,�k��,0.4,93.4,0,0,0,0,0,0,1006.1,1020.7
2022-01-17T02:41:00+09:00,0.7,�k�k��,1.4,�k��,0.3,93.5,0,0,0,0,0,0,1006.2,1020.9
2022-01-17T02:42:00+09:00,0.6,�k�k��,1.4,�k��,0.4,93.6,0,0,0,0,0,0,1006.1,1020.7
2022-01-17T02:43:00+09:00,0.5,�k�k��,1.4,�k��,0.5,93.9,0,0,0,0,0,0,1006.1,1020.7
2022-01-17T02:44:00+09:00,0.4,�k�k��,1.4,�k��,0.6,94.2,0,0,0,0,0,0,1006.1,1020.7
2022-01-17T02:45:00+09:00,0.4,�k�k��,1.4,�k��,0.4,94,0,0,0,0,0,0,1006.1,1020.7
2022-01-17T02:46:00+09:00,0.4,�k�k��,1.4,�k��,0.4,93.7,0,0,0,0,0,0,1006.1,1020.7
2022-01-17T02:47:00+09:00,0.4,�k,1.4,��쐼,0.6,94.1,0,0,0,0,0,0,1006.1,1020.7
2022-01-17T02:48:00+09:00,0.4,�쐼,1.4,��쐼,0.7,94.7,0,0,0,0,0,0,1006,1020.6
2022-01-17T02:49:00+09:00,0.4,�쐼,1.5,���쐼,0.7,94.8,0,0,0,0,0,0,1006,1020.6
2022-01-17T02:50:00+09:00,0.5,�쐼,1.5,���쐼,0.5,94.4,0,0,0,0,0,0,1006,1020.6
2022-01-17T02:51:00+09:00,0.5,�쐼,1.5,���쐼,0.4,93.5,0,0,0,0,0,0,1005.9,1020.5
2022-01-17T02:52:00+09:00,0.6,�쐼,1.5,���쐼,0.4,93.6,0,0,0,0,0,0,1005.9,1020.5
2022-01-17T02:53:00+09:00,0.7,�쐼,1.5,���쐼,0.3,93.7,0,0,0,0,0,0,1005.9,1020.6
2022-01-17T02:54:00+09:00,0.8,�쐼,1.6,��,0.2,93.4,0,0,0,0,0,0,1005.9,1020.6
2022-01-17T02:55:00+09:00,0.8,�쐼,1.6,��,0.2,93.4,0,0,0,0,0,0,1005.9,1020.6
2022-01-17T02:56:00+09:00,0.9,�쐼,1.6,��,0.3,93.7,0,0,0,0,0,0,1005.9,1020.6
2022-01-17T02:57:00+09:00,0.8,�쐼,1.6,��,0.3,93.9,0,0,0,0,0,0,1005.9,1020.6
2022-01-17T02:58:00+09:00,0.7,��쐼,1.6,��,0.2,93.9,0,0,0,0,0,0,1005.9,1020.6
2022-01-17T02:59:00+09:00,0.7,��쐼,1.6,��,0.1,93.7,0,0,0,0,0,0,1005.9,1020.6
2022-01-17T03:00:00+09:00,0.7,��쐼,1.6,��,0.2,93.8,0,0,0,0,0,0,1005.9,1020.6
2022-01-17T03:01:00+09:00,0.7,��,1.6,��,0.4,94.3,0,0,0,0,0,0,1005.9,1020.5
2022-01-17T03:02:00+09:00,0.7,��쐼,1.6,��,0.5,94.9,0,0,0,0,0,0,1005.9,1020.5
2022-01-17T03:03:00+09:00,0.7,��쐼,1.6,��,0.5,94.8,0,0,0,0,0,0,1006,1020.6
2022-01-17T03:04:00+09:00,0.6,�쐼,1.6,�k��,0.6,94.8,0,0,0,0,0,0,1005.9,1020.5
2022-01-17T03:05:00+09:00,0.7,���k��,1.6,�k��,0.6,94.9,0,0,0,0,0,0,1005.9,1020.5
2022-01-17T03:06:00+09:00,0.7,�k��,1.6,�k��,0.6,95,0,0,0,0,0,0,1005.9,1020.5
2022-01-17T03:07:00+09:00,0.7,���k��,1.6,�k��,0.5,94.7,0,0,0,0,0,0,1006,1020.6
2022-01-17T03:08:00+09:00,0.6,���k��,1.6,�k��,0.5,94.6,0,0,0,0,0,0,1005.9,1020.5
2022-01-17T03:09:00+09:00,0.6,�k��,1.6,�k��,0.4,94.1,0,0,0,0,0,0,1005.9,1020.5
2022-01-17T03:10:00+09:00,0.6,�k�k��,1.6,�k��,0.2,93.8,0,0,0,0,0,0,1005.9,1020.6
2022-01-17T03:11:00+09:00,0.6,�k�k��,1.6,�k��,0.2,93.9,0,0,0,0,0,0,1005.9,1020.6
2022-01-17T03:12:00+09:00,0.5,�k,1.6,�k��,0.1,93.7,0,0,0,0,0,0,1005.9,1020.6
2022-01-17T03:13:00+09:00,0.4,�k,1.6,��,0.1,93.7,0,0,0,0,0,0,1005.8,1020.5
2022-01-17T03:14:00+09:00,0.4,�k,1.6,��,0.2,93.9,0,0,0,0,0,0,1005.8,1020.5
2022-01-17T03:15:00+09:00,0.3,�k,1.6,��,0,94,0,0,0,0,0,0,1005.8,1020.5
2022-01-17T03:16:00+09:00,0.2,�É�,1.2,���쐼,0,93.8,0,0,0,0,0,0,1005.8,1020.5
2022-01-17T03:17:00+09:00,0.2,�É�,0.9,���쐼,0.2,94.1,0,0,0,0,0,0,1005.9,1020.6
2022-01-17T03:18:00+09:00,0.2,�É�,0.9,���쐼,0.2,94.6,0,0,0,0,0,0,1005.9,1020.6
2022-01-17T03:19:00+09:00,0.3,�k��,0.9,���쐼,0,94,0,0,0,0,0,0,1005.9,1020.6
2022-01-17T03:20:00+09:00,0.3,�k��,0.9,���쐼,0,93.6,0,0,0,0,0,0,1005.8,1020.5
2022-01-17T03:21:00+09:00,0.4,���k��,0.9,���쐼,0.1,94.2,0,0,0,0,0,0,1005.8,1020.5
2022-01-17T03:22:00+09:00,0.4,���k��,0.9,���쐼,0,94.3,0,0,0,0,0,0,1005.8,1020.5
2022-01-17T03:23:00+09:00,0.4,���k��,0.9,���쐼,0,93.9,0,0,0,0,0,0,1005.8,1020.5
2022-01-17T03:24:00+09:00,0.4,���k��,0.9,���쐼,0.1,94.1,0,0,0,0,0,0,1005.7,1020.4
2022-01-17T03:25:00+09:00,0.5,���k��,0.9,���쐼,0.2,94.6,0,0,0,0,0,0,1005.8,1020.5
2022-01-17T03:26:00+09:00,0.5,�k��,0.8,�k�k��,0.3,94.6,0,0,0,0,0,0,1005.8,1020.5
2022-01-17T03:27:00+09:00,0.5,�k��,1,���k��,0.6,95.1,0,0,0,0,0,0,1005.8,1020.4
2022-01-17T03:28:00+09:00,0.5,�k��,1,���k��,0.1,94.7,0,0,0,0,0,0,1005.8,1020.5
2022-01-17T03:29:00+09:00,0.5,�k��,1,���k��,0,93.7,0,0,0,0,0,0,1005.7,1020.4
2022-01-17T03:30:00+09:00,0.5,�k�k��,1,���k��,0,93.5,0,0,0,0,0,0,1005.7,1020.4
2022-01-17T03:31:00+09:00,0.4,�k�k��,1,���k��,0,93.9,0,0,0,0,0,0,1005.6,1020.3
2022-01-17T03:32:00+09:00,0.4,�k,1,���k��,0,94.1,0,0,0,0,0,0,1005.6,1020.3
2022-01-17T03:33:00+09:00,0.4,�k,1,���k��,0,94.1,0,0,0,0,0,0,1005.5,1020.2
2022-01-17T03:34:00+09:00,0.3,�k�k��,1,���k��,0.1,94.2,0,0,0,0,0,0,1005.6,1020.3
2022-01-17T03:35:00+09:00,0.3,�k��,1,���k��,0.3,94.8,0,0,0,0,0,0,1005.7,1020.3
2022-01-17T03:36:00+09:00,0.3,�k�k��,1,���k��,0.3,94.8,0,0,0,0,0,0,1005.7,1020.3
2022-01-17T03:37:00+09:00,0.2,�É�,0.8,���쐼,0.1,94.5,0,0,0,0,0,0,1005.7,1020.4
2022-01-17T03:38:00+09:00,0.2,�É�,0.5,��,0.2,94.4,0,0,0,0,0,0,1005.6,1020.3
2022-01-17T03:39:00+09:00,0.2,�É�,0.7,��,0.2,94.9,0,0,0,0,0,0,1005.7,1020.4
2022-01-17T03:40:00+09:00,0.2,�É�,0.7,��,0.3,94.6,0,0,0,0,0,0,1005.7,1020.3
2022-01-17T03:41:00+09:00,0.2,�É�,0.7,��,0.3,94.7,0,0,0,0,0,0,1005.7,1020.3
2022-01-17T03:42:00+09:00,0.2,�É�,0.7,��,0.3,94.7,0,0,0,0,0,0,1005.7,1020.3
2022-01-17T03:43:00+09:00,0.2,�É�,0.7,��,0.4,94.8,0,0,0,0,0,0,1005.7,1020.3
2022-01-17T03:44:00+09:00,0.3,�k,1.5,��,0.3,94.7,0,0,0,0,0,0,1005.7,1020.3
2022-01-17T03:45:00+09:00,0.4,�k�k��,1.9,���k��,0.5,94.8,0,0,0,0,0,0,1005.8,1020.4
2022-01-17T03:46:00+09:00,0.5,�k��,2,��,0.2,94.5,0,0,0,0,0,0,1005.8,1020.5
2022-01-17T03:47:00+09:00,0.6,�k��,2,��,0,93.9,0,0,0,0,0,0,1005.8,1020.5
2022-01-17T03:48:00+09:00,0.6,�k��,2,��,0,93.7,0,0,0,0,0,0,1005.7,1020.4
2022-01-17T03:49:00+09:00,0.5,�k��,2,��,0,93.7,0,0,0,0,0,0,1005.7,1020.4
2022-01-17T03:50:00+09:00,0.5,�k��,2,��,0,93.7,0,0,0,0,0,0,1005.7,1020.4
2022-01-17T03:51:00+09:00,0.6,���k��,2,��,0.1,94.4,0,0,0,0,0,0,1005.8,1020.5
2022-01-17T03:52:00+09:00,0.7,���k��,2,��,0.3,94.6,0,0,0,0,0,0,1005.8,1020.5
2022-01-17T03:53:00+09:00,0.8,���k��,2,��,0.4,94.8,0,0,0,0,0,0,1005.8,1020.4
2022-01-17T03:54:00+09:00,0.7,���k��,2,��,0.3,94.9,0,0,0,0,0,0,1005.8,1020.5
2022-01-17T03:55:00+09:00,0.6,���k��,2,��,0.1,94.4,0,0,0,0,0,0,1005.8,1020.5
2022-01-17T03:56:00+09:00,0.5,�k��,1.6,�k��,0.1,94.1,0,0,0,0,0,0,1005.7,1020.4
2022-01-17T03:57:00+09:00,0.4,�k��,1.6,�k��,0.1,94.2,0,0,0,0,0,0,1005.8,1020.5
2022-01-17T03:58:00+09:00,0.4,�k��,1.6,�k��,0.1,94.4,0,0,0,0,0,0,1005.8,1020.5
2022-01-17T03:59:00+09:00,0.5,�k�k��,1.6,�k��,0,94.2,0,0,0,0,0,0,1005.7,1020.4
2022-01-17T04:00:00+09:00,0.5,�k�k��,1.6,�k��,0.2,94.4,0,0,0,0,0,0,1005.8,1020.5
2022-01-17T04:01:00+09:00,0.4,�k,1.6,�k��,0.2,95,0,0,0,0,0,0,1005.8,1020.5
2022-01-17T04:02:00+09:00,0.3,�k,1.6,�k��,0.1,94.7,0,0,0,0,0,0,1005.8,1020.5
2022-01-17T04:03:00+09:00,0.2,�É�,0.9,���k��,0.2,94.7,0,0,0,0,0,0,1005.8,1020.5
2022-01-17T04:04:00+09:00,0.2,�É�,0.9,���k��,0.1,94.7,0,0,0,0,0,0,1005.8,1020.5
2022-01-17T04:05:00+09:00,0.2,�É�,1.1,���k��,0.2,94.6,0,0,0,0,0,0,1005.8,1020.5
2022-01-17T04:06:00+09:00,0.3,�k,1.4,�k��,0.1,94.6,0,0,0,0,0,0,1005.9,1020.6
2022-01-17T04:07:00+09:00,0.4,�k,1.4,�k��,0.3,94.9,0,0,0,0,0,0,1005.8,1020.5
2022-01-17T04:08:00+09:00,0.4,�k,1.4,�k��,0.2,95.3,0,0,0,0,0,0,1005.8,1020.5
2022-01-17T04:09:00+09:00,0.4,�k,1.4,�k��,0.2,94.9,0,0,0,0,0,0,1005.8,1020.5
2022-01-17T04:10:00+09:00,0.4,�k,1.4,�k��,0.2,94.9,0,0,0,0,0,0,1005.9,1020.6
2022-01-17T04:11:00+09:00,0.4,�k,1.4,�k��,0.1,95,0,0,0,0,0,0,1005.9,1020.6
2022-01-17T04:12:00+09:00,0.3,�k,1.4,�k��,0,94.7,0,0,0,0,0,0,1005.9,1020.6
2022-01-17T04:13:00+09:00,0.4,�k,1.4,�k��,0,94.6,0,0,0,0,0,0,1005.8,1020.5
2022-01-17T04:14:00+09:00,0.4,�k,1.4,�k��,0.1,94.7,0,0,0,0,0,0,1005.8,1020.5
2022-01-17T04:15:00+09:00,0.4,�k,1.4,�k��,0,95.1,0,0,0,0,0,0,1005.8,1020.5
2022-01-17T04:16:00+09:00,0.3,�k�k��,1.3,�k,0.1,95.1,0,0,0,0,0,0,1005.8,1020.5
2022-01-17T04:17:00+09:00,0.2,�É�,1,�k�k��,0.2,95.4,0,0,0,0,0,0,1005.9,1020.6
2022-01-17T04:18:00+09:00,0.2,�É�,1,�k�k��,0.1,95.3,0,0,0,0,0,0,1005.8,1020.5
2022-01-17T04:19:00+09:00,0.2,�É�,0.8,�k,0.2,95.4,0,0,0,0,0,0,1005.9,1020.6
2022-01-17T04:20:00+09:00,0.3,�k,1.4,���k��,0.1,95.4,0,0,0,0,0,0,1005.9,1020.6
2022-01-17T04:21:00+09:00,0.4,�k�k��,1.4,���k��,0,95.3,0,0,0,0,0,0,1005.9,1020.6
2022-01-17T04:22:00+09:00,0.4,�k�k��,1.4,���k��,0.1,95.3,0,0,0,0,0,0,1005.9,1020.6
2022-01-17T04:23:00+09:00,0.4,�k�k��,1.4,���k��,0,95.3,0,0,0,0,0,0,1005.9,1020.6
2022-01-17T04:24:00+09:00,0.4,�k�k��,1.4,���k��,0.1,95.3,0,0,0,0,0,0,1005.9,1020.6
2022-01-17T04:25:00+09:00,0.5,�k�k��,1.4,���k��,0.1,95.5,0,0,0,0,0,0,1005.9,1020.6
2022-01-17T04:26:00+09:00,0.5,�k�k��,1.4,���k��,0,95.4,0,0,0,0,0,0,1005.9,1020.6
2022-01-17T04:27:00+09:00,0.5,�k�k��,1.4,���k��,0.1,95.4,0,0,0,0,0,0,1005.8,1020.5
2022-01-17T04:28:00+09:00,0.5,�k�k��,1.4,���k��,0,95.5,0,0,0,0,0,0,1005.9,1020.6
2022-01-17T04:29:00+09:00,0.5,�k�k��,1.4,���k��,-0.1,95.2,0,0,0,0,0,0,1005.9,1020.6
2022-01-17T04:30:00+09:00,0.5,�k,1.4,���k��,0,95.4,0,0,0,0,0,0,1005.9,1020.6
2022-01-17T04:31:00+09:00,0.4,�k,1.2,�k,0,95.6,0,0,0,0,0,0,1005.9,1020.6
2022-01-17T04:32:00+09:00,0.5,�k,1.2,�k,-0.1,95.4,0,0,0,0,0,0,1005.9,1020.6
2022-01-17T04:33:00+09:00,0.5,�k,1.2,�k,0,95.6,0,0,0,0,0,0,1006,1020.7
2022-01-17T04:34:00+09:00,0.5,�k�k��,1.2,�k,0,95.8,0,0,0,0,0,0,1006,1020.7
2022-01-17T04:35:00+09:00,0.5,�k,1.2,�k,0,95.8,0,0,0,0,0,0,1006,1020.7
2022-01-17T04:36:00+09:00,0.5,�k,1.3,�k��,0,95.7,0,0,0,0,0,0,1006,1020.7
2022-01-17T04:37:00+09:00,0.6,�k,1.3,�k��,0.2,95.8,0,0,0,0,0,0,1006,1020.7
2022-01-17T04:38:00+09:00,0.6,�k�k��,1.3,�k��,0,96,0,0,0,0,0,0,1005.9,1020.6
2022-01-17T04:39:00+09:00,0.6,�k�k��,1.3,�k��,0,95.7,0,0,0,0,0,0,1005.9,1020.6
2022-01-17T04:40:00+09:00,0.5,�k�k��,1.3,�k��,-0.1,95.5,0,0,0,0,0,0,1005.8,1020.5
2022-01-17T04:41:00+09:00,0.5,�k��,1.3,�k��,0,95.6,0,0,0,0,0,0,1005.8,1020.5
2022-01-17T04:42:00+09:00,0.5,�k��,1.3,�k��,-0.2,95.6,0,0,0,0,0,0,1005.8,1020.5
2022-01-17T04:43:00+09:00,0.5,���k��,1.3,�k��,-0.2,95.5,0,0,0,0,0,0,1005.8,1020.5
2022-01-17T04:44:00+09:00,0.5,���k��,1.3,�k��,-0.2,95.7,0,0,0,0,0,0,1005.8,1020.5
2022-01-17T04:45:00+09:00,0.4,���k��,1.3,�k��,-0.4,95.5,0,0,0,0,0,0,1005.8,1020.5
2022-01-17T04:46:00+09:00,0.4,���k��,1.1,���k��,-0.5,95.3,0,0,0,0,0,0,1005.8,1020.5
2022-01-17T04:47:00+09:00,0.3,�k��,0.9,���k��,-0.4,95.5,0,0,0,0,0,0,1005.8,1020.5
2022-01-17T04:48:00+09:00,0.3,�k�k��,1.1,�k��,-0.4,95.6,0,0,0,0,0,0,1005.8,1020.5
2022-01-17T04:49:00+09:00,0.4,�k,1.1,�k��,-0.2,95.8,0,0,0,0,0,0,1005.8,1020.5
2022-01-17T04:50:00+09:00,0.4,�k�k��,1.1,�k��,-0.1,96.2,0,0,0,0,0,0,1005.9,1020.6
2022-01-17T04:51:00+09:00,0.3,�k�k��,1.1,�k��,0,96.2,0,0,0,0,0,0,1005.9,1020.6
2022-01-17T04:52:00+09:00,0.3,�k�k��,1.1,�k��,-0.2,96.2,0,0,0,0,0,0,1005.8,1020.5
2022-01-17T04:53:00+09:00,0.3,�k�k��,1.1,�k��,-0.2,95.9,0,0,0,0,0,0,1005.8,1020.5
2022-01-17T04:54:00+09:00,0.3,�k�k��,1.1,�k��,0,96.1,0,0,0,0,0,0,1005.8,1020.5
2022-01-17T04:55:00+09:00,0.3,�k�k��,1.1,�k��,-0.2,96.1,0,0,0,0,0,0,1005.8,1020.5
2022-01-17T04:56:00+09:00,0.2,�É�,1.1,�k��,-0.3,95.8,0,0,0,0,0,0,1005.7,1020.4
2022-01-17T04:57:00+09:00,0.3,�k,1.1,�k��,-0.2,95.8,0,0,0,0,0,0,1005.8,1020.5
2022-01-17T04:58:00+09:00,0.2,�É�,0.7,�k��,-0.2,95.8,0,0,0,0,0,0,1005.8,1020.5
2022-01-17T04:59:00+09:00,0.2,�É�,0.6,���k��,-0.3,95.9,0,0,0,0,0,0,1005.7,1020.4
2022-01-17T05:00:00+09:00,0.2,�É�,0.6,���k��,-0.1,96,0,0,0,0,0,0,1005.7,1020.4
2022-01-17T05:01:00+09:00,0.2,�É�,0.6,���k��,-0.1,96.2,0,0,0,0,0,0,1005.8,1020.5